Tracking 31027 objects as of 19-Jul-2025
HD Live streaming from Space Station
objects crossing your sky now

ONEWEB-0549

Track ONEWEB-0549 now!
10-day predictions
ONEWEB-0549 is classified as:


NORAD ID: 56051
Int'l Code: 2023-043F
Perigee: 1,183.3 km
Apogee: 1,186.5 km
Inclination: 87.9 °
Period: 108.9 minutes
Semi major axis: 7555 km
RCS: Unknown
Launch date: March 26, 2023
Source: United Kingdom (UK)
Launch site: SRIHARIKOTA (SRI)
Your satellite tracking list
SKOLTECH-B2
Track 1 satellite(s)




NASA's NSSDC Master Catalog

Two Line Element Set (TLE):
1 56051U 23043F   25199.72242362  .00000029  00000-0  39902-4 0  9991
2 56051  87.9272 310.5103 0002174  91.1390 268.9993 13.21823343114174
Source of the keplerian elements: AFSPC